Regional Weather Roundup
Issued by NWS

Home | Current Version | Previous Version | Graphics & Text | Print | Product List | Glossary On
Versions: 1 2 3 4 5 6 7 8 9 10 11 12 13 14 15 16 17 18 19 20 21 22 23 24 25 26 27 28 29 30 31 32 33 34 35 36 37 38 39 40 41 42 43 44 45 46 47 48 49 50
000
ASUS45 KBOI 210510
RWRID

IDAHO REGIONAL WEATHER ROUNDUP
NATIONAL WEATHER SERVICE BOISE ID
1000 PM MST FRI JAN 20 2017

NOTE: "FAIR" INDICATES FEW OR NO CLOUDS BELOW 12000 FEET
WITH NO SIGNIFICANT WEATHER AND/OR OBSTRUCTIONS TO VISIBILITY

IDZ012-014-210600-
SOUTHWEST IDAHO


CITY           SKY/WX    TMP DP  RH WIND       PRES   REMARKS
BOISE          CLOUDY    37  29  72 SE12      29.27S WCI  29
CALDWELL       CLOUDY    34  32  92 SE14      29.28S WCI  25
MOUNTAIN HOME  LGT RAIN  34  34 100 E18       29.27S FOG     WCI  23
$$

IDZ016-017-210600-
SOUTHCENTRAL IDAHO


CITY           SKY/WX    TMP DP  RH WIND       PRES   REMARKS
BURLEY         LGT SNOW  31  27  85 NW7       29.26F FOG     WCI  24
JEROME         LGT SNOW  28  26  92 NE18      29.28S FOG     WCI  15
TWIN FALLS     LGT SNOW  30  29  96 E3        29.27S VSB 1
$$

IDZ019>023-210600-
SOUTHEAST IDAHO


CITY           SKY/WX    TMP DP  RH WIND       PRES   REMARKS
IDAHO FALLS    CLOUDY    17  16  95 N5        29.34F WCI  10
POCATELLO      CLOUDY    25  22  88 N7        29.33F WCI  17
REXBURG        CLOUDY    12  11  95 E3        29.35S
$$

IDZ006-010-011-018-031-032-210600-
CENTRAL IDAHO MOUNTAINS


CITY           SKY/WX    TMP DP  RH WIND       PRES   REMARKS
MCCALL         CLOUDY    23  20  88 CALM      29.20R
HAILEY         LGT SNOW  28  27  93 CALM      29.29F
STANLEY          N/A     21  17  84 CALM      29.24S
SALMON         CLOUDY     5   0  78 CALM      29.35R
CHALLIS        CLOUDY     9   9 100 CALM      29.32S FOG
$$

IDZ002-004-006-007-026-210600-
NORTHERN IDAHO


CITY           SKY/WX    TMP DP  RH WIND       PRES   REMARKS
LEWISTON       CLOUDY    35  30  82 S7        29.23R WCI  29
LOWELL           N/A     32  30  92 CALM      29.30S
COEUR D`ALENE  MOCLDY    35  29  78 N12       29.24S WCI  27
MULLAN PASS    CLOUDY    24  21  88 SE10G17   29.21S WCI  14
$$



USA.gov is the U.S. government's official web portal to all federal, state and local government web resources and services.